TimeMST,TemperatureF,Dew PointF,Humidity,Sea Level PressureIn,VisibilityMPH,Wind Direction,Wind SpeedMPH,Gust SpeedMPH,PrecipitationIn,Events,Conditions,WindDirDegrees,DateUTC
12:15 AM,35.6,8.6,33,30.33,10.0,ESE,8.1,-,N/A,,Clear,110,2013-01-21 07:15:00
12:35 AM,35.6,8.6,33,30.34,10.0,Calm,Calm,-,N/A,,Clear,0,2013-01-21 07:35:00
12:55 AM,33.8,8.6,35,30.34,10.0,Calm,Calm,-,N/A,,Clear,0,2013-01-21 07:55:00
1:15 AM,35.6,8.6,33,30.33,10.0,South,4.6,-,N/A,,Clear,180,2013-01-21 08:15:00
1:35 AM,33.8,8.6,35,30.33,10.0,SSE,4.6,-,N/A,,Clear,160,2013-01-21 08:35:00
1:55 AM,30.2,8.6,40,30.34,10.0,SE,10.4,-,N/A,,Clear,130,2013-01-21 08:55:00
2:15 AM,33.8,10.4,38,30.34,10.0,East,8.1,-,N/A,,Clear,100,2013-01-21 09:15:00
2:35 AM,33.8,10.4,38,30.34,10.0,NE,9.2,-,N/A,,Clear,50,2013-01-21 09:35:00
2:55 AM,33.8,8.6,35,30.34,10.0,SE,4.6,-,N/A,,Clear,130,2013-01-21 09:55:00
3:15 AM,28.4,6.8,40,30.34,10.0,Calm,Calm,-,N/A,,Clear,0,2013-01-21 10:15:00
3:55 AM,30.2,8.6,40,30.34,10.0,ESE,4.6,-,N/A,,Clear,110,2013-01-21 10:55:00
4:15 AM,32.0,8.6,38,30.34,10.0,East,5.8,-,N/A,,Clear,80,2013-01-21 11:15:00
4:35 AM,32.0,10.4,41,30.34,10.0,ESE,5.8,-,N/A,,Clear,110,2013-01-21 11:35:00
4:55 AM,30.2,8.6,40,30.35,10.0,ENE,5.8,-,N/A,,Clear,70,2013-01-21 11:55:00
5:15 AM,30.2,8.6,40,30.34,10.0,South,5.8,-,N/A,,Clear,170,2013-01-21 12:15:00
5:35 AM,28.4,8.6,43,30.35,10.0,Calm,Calm,-,N/A,,Clear,0,2013-01-21 12:35:00
5:55 AM,28.4,8.6,43,30.35,10.0,Calm,Calm,-,N/A,,Clear,0,2013-01-21 12:55:00
6:15 AM,28.4,8.6,43,30.35,10.0,ESE,3.5,-,N/A,,Clear,120,2013-01-21 13:15:00
6:35 AM,30.2,10.4,44,30.35,10.0,ESE,4.6,-,N/A,,Clear,120,2013-01-21 13:35:00
6:55 AM,28.4,8.6,43,30.36,10.0,South,3.5,-,N/A,,Clear,190,2013-01-21 13:55:00
7:15 AM,28.4,8.6,43,30.37,10.0,South,3.5,-,N/A,,Clear,190,2013-01-21 14:15:00
7:35 AM,24.8,6.8,46,30.37,10.0,SSW,4.6,-,N/A,,Clear,200,2013-01-21 14:35:00
7:55 AM,26.6,8.6,47,30.37,10.0,Calm,Calm,-,N/A,,Clear,0,2013-01-21 14:55:00
8:15 AM,26.6,8.6,47,30.38,10.0,South,5.8,-,N/A,,Clear,170,2013-01-21 15:15:00
8:35 AM,26.6,10.4,51,30.39,10.0,Calm,Calm,-,N/A,,Clear,0,2013-01-21 15:35:00
8:55 AM,28.4,10.4,47,30.39,10.0,Calm,Calm,-,N/A,,Clear,0,2013-01-21 15:55:00
9:15 AM,30.2,12.2,47,30.40,10.0,Calm,Calm,-,N/A,,Clear,0,2013-01-21 16:15:00
9:35 AM,32.0,10.4,41,30.40,10.0,Calm,Calm,-,N/A,,Clear,0,2013-01-21 16:35:00
9:55 AM,33.8,12.2,41,30.41,10.0,Calm,Calm,-,N/A,,Clear,0,2013-01-21 16:55:00
10:15 AM,33.8,12.2,41,30.42,10.0,Calm,Calm,-,N/A,,Clear,0,2013-01-21 17:15:00
10:35 AM,35.6,12.2,38,30.42,10.0,Calm,Calm,-,N/A,,Clear,0,2013-01-21 17:35:00
10:55 AM,37.4,12.2,36,30.42,10.0,SSW,3.5,-,N/A,,Clear,200,2013-01-21 17:55:00
11:15 AM,39.2,12.2,33,30.41,10.0,SSW,4.6,-,N/A,,Clear,200,2013-01-21 18:15:00
11:35 AM,42.8,12.2,29,30.41,10.0,SSW,4.6,-,N/A,,Clear,200,2013-01-21 18:35:00
11:55 AM,42.8,12.2,29,30.40,10.0,SW,3.5,-,N/A,,Clear,220,2013-01-21 18:55:00
12:15 PM,44.6,12.2,27,30.38,10.0,Calm,Calm,-,N/A,,Clear,0,2013-01-21 19:15:00
12:35 PM,46.4,12.2,25,30.36,10.0,WSW,3.5,-,N/A,,Clear,250,2013-01-21 19:35:00
12:55 PM,46.4,12.2,25,30.35,10.0,Calm,Calm,-,N/A,,Clear,0,2013-01-21 19:55:00
1:15 PM,48.2,12.2,24,30.34,10.0,WSW,4.6,-,N/A,,Clear,240,2013-01-21 20:15:00
1:35 PM,51.8,12.2,21,30.32,10.0,Calm,Calm,-,N/A,,Clear,0,2013-01-21 20:35:00
1:55 PM,51.8,12.2,21,30.31,10.0,Calm,Calm,-,N/A,,Clear,0,2013-01-21 20:55:00
2:15 PM,53.6,14.0,21,30.30,10.0,WNW,3.5,-,N/A,,Clear,300,2013-01-21 21:15:00
2:35 PM,51.8,12.2,21,30.29,10.0,Calm,Calm,-,N/A,,Clear,0,2013-01-21 21:35:00
2:55 PM,53.6,12.2,19,30.29,10.0,Calm,Calm,-,N/A,,Clear,0,2013-01-21 21:55:00
3:15 PM,53.6,12.2,19,30.29,10.0,Calm,Calm,-,N/A,,Clear,0,2013-01-21 22:15:00
3:35 PM,53.6,12.2,19,30.28,10.0,West,4.6,-,N/A,,Clear,270,2013-01-21 22:35:00
3:55 PM,53.6,12.2,19,30.28,10.0,West,3.5,-,N/A,,Clear,280,2013-01-21 22:55:00
4:15 PM,53.6,12.2,19,30.28,10.0,Calm,Calm,-,N/A,,Clear,0,2013-01-21 23:15:00
4:35 PM,55.4,12.2,18,30.28,10.0,Calm,Calm,-,N/A,,Clear,0,2013-01-21 23:35:00
4:55 PM,55.4,12.2,18,30.28,10.0,Calm,Calm,-,N/A,,Clear,0,2013-01-21 23:55:00
5:15 PM,55.4,12.2,18,30.27,10.0,Calm,Calm,-,N/A,,Clear,0,2013-01-22 00:15:00
5:55 PM,51.8,10.4,19,30.27,10.0,North,4.6,-,N/A,,Clear,360,2013-01-22 00:55:00
6:15 PM,51.8,10.4,19,30.27,10.0,NNE,4.6,-,N/A,,Clear,20,2013-01-22 01:15:00
6:35 PM,48.2,10.4,22,30.27,10.0,NNE,4.6,-,N/A,,Clear,20,2013-01-22 01:35:00
6:55 PM,48.2,10.4,22,30.28,10.0,NNE,4.6,-,N/A,,Clear,30,2013-01-22 01:55:00
7:15 PM,44.6,8.6,23,30.28,10.0,Calm,Calm,-,N/A,,Clear,0,2013-01-22 02:15:00
7:35 PM,44.6,10.4,25,30.28,10.0,Calm,Calm,-,N/A,,Clear,0,2013-01-22 02:35:00
7:55 PM,42.8,8.6,25,30.29,10.0,Calm,Calm,-,N/A,,Clear,0,2013-01-22 02:55:00
8:15 PM,41.0,8.6,26,30.29,10.0,South,3.5,-,N/A,,Clear,190,2013-01-22 03:15:00
8:35 PM,44.6,10.4,25,30.30,10.0,Calm,Calm,-,N/A,,Clear,0,2013-01-22 03:35:00
8:55 PM,44.6,10.4,25,30.30,10.0,NE,5.8,-,N/A,,Clear,40,2013-01-22 03:55:00
9:15 PM,42.8,10.4,27,30.31,10.0,North,8.1,-,N/A,,Clear,10,2013-01-22 04:15:00
9:35 PM,42.8,10.4,27,30.31,10.0,NNE,6.9,-,N/A,,Clear,20,2013-01-22 04:35:00
9:55 PM,41.0,10.4,29,30.32,10.0,ENE,6.9,-,N/A,,Clear,70,2013-01-22 04:55:00
10:15 PM,39.2,8.6,28,30.31,10.0,ESE,10.4,-,N/A,,Clear,120,2013-01-22 05:15:00
10:55 PM,37.4,8.6,30,30.31,10.0,Calm,Calm,-,N/A,,Clear,0,2013-01-22 05:55:00
11:15 PM,35.6,8.6,33,30.32,10.0,South,3.5,-,N/A,,Clear,170,2013-01-22 06:15:00
11:35 PM,39.2,10.4,31,30.32,10.0,Calm,Calm,-,N/A,,Clear,0,2013-01-22 06:35:00
11:55 PM,37.4,8.6,30,30.32,10.0,Calm,Calm,-,N/A,,Clear,0,2013-01-22 06:55:00